Hourly Data Report for March 12, 2012

BAGOTVILLE A
QUEBEC

48°20'00.000" N
71°00'00.000" W
159.10 m
7060400
71727
YBG

Download Data

Hourly Data (March 2012)
Hourly Data Report for March 12, 2012
TIME
LST
Temp Definition
°C
Dew Point Definition
°C
Rel Hum Definition
%
Precip. Amount Definition
mm

Wind Dir Definition
10's deg

Wind Spd Definition
km/h
Visibility Definition
km
Stn Press Definition
kPa
Hmdx Definition


Wind Chill Definition


Weather Definition


00:00 -8.4 -9.4 92     0 24.1 100.00     Clear
01:00 -9.0 -10.1 92   30 6 24.1 100.04   -12 Clear
02:00 -10.0 -11.2 91   26 4 24.1 100.07   -12 Mainly Clear
03:00 -9.3 -10.8 89   28 6 24.1 100.11   -13 Mainly Clear
04:00 -6.6 -7.8 91   28 7 24.1 100.16   -10 Mainly Clear
05:00 -7.9 -8.9 93   29 11 24.1 100.22   -13 Mainly Clear
06:00 -7.5 -8.4 93   27 7 40.2 100.28   -11 Mainly Clear
07:00 -4.5 -5.4 93   27 17 24.1 100.37   -10 Mainly Clear
08:00 -2.5 -5.7 79   27 17 40.2 100.45   -8 Clear
09:00 -0.4 -5.2 70   28 17 40.2 100.53   -5 Clear
10:00 0.6 -3.5 74   30 15 40.2 100.56     Clear
11:00 2.1 -4.2 63   30 13 40.2 100.55     Clear
12:00 3.4 -4.6 56   31 11 40.2 100.49     Mainly Clear
13:00 3.7 -6.1 49   31 11 40.2 100.39     Mainly Clear
14:00 4.8 -9.4 35   29 13 40.2 100.35     Mainly Clear
15:00 4.9 -8.8 36   27 11 40.2 100.33     Mainly Clear
16:00 5.2 -9.3 34   28 9 40.2 100.27     Mostly Cloudy
17:00 4.4 -9.6 35   31 6 40.2 100.26     Mostly Cloudy
18:00 2.2 -9.5 42     0 40.2 100.24     Mostly Cloudy
19:00 0.3 -7.6 55     0 24.1 100.23     Mostly Cloudy
20:00 -0.5 -7.7 58   21 4 24.1 100.24   -2 Cloudy
21:00 -1.5 -6.0 71   21 6 24.1 100.24   -4 Cloudy
22:00 -1.0 -5.7 70   21 4 24.1 100.16   -2 Cloudy
23:00 -1.1 -6.5 67   14 4 24.1 100.12   -2 Cloudy

Notes on Data Quality.

Legend

  • E = Estimated
  • M = Missing
  • NA = Not Available*
  • [empty] = Indicates an unobserved value
Date modified: